Current weather by "City, St" or "zip code"  
 

Current Conditions: Gilmer, Fox Stephens Field - Gilmer Municipal Airport, TX

Fair


66.0 F

Last Updated on Feb 25 2024, 9:35 am CST
Humidity: 36%
Wind Speed: S 11.5 G 18.4 mph
Barometer 30.04 in
Dewpoint: 38.7 F
Visibility: 10.00 mi
Precip: --
Heat Index: NA
Wind Chill: NA
Current conditions at:

Gilmer, Fox Stephens Field - Gilmer Municipal Airport, TX (KJXI)

Lat: 32.69889 Lon: 94.94861

Local Radar Image active severe weather and emergency alerts image image weather storm and storm spotter reports image weather observation monitoring service image
Local
Radar
Active
Alerts
Storm Reports Obs
Monitoring

Sign-up For Email & Text Message Weather Alert Notification Services



Advertise Here

Observation History for Gilmer, Fox Stephens Field - Gilmer Municipal Airport, TX


Time Wind
(mph)
Vis
(mi)
Weather Precip (in) Temperature (F) Relative
Humidity
Wind
Chill
(F)
Heat
Index
(F)
Pressure
Air Dwpt altimeter
(in)
sea level
(mb)
Rmks
9:35 am CST S 11.5 G 18.4 10.00 Fair -- 66.0 38.7 36% NA NA 30.04 M
9:15 am CST S 8.1 G 18.4 10.00 Fair -- 64.0 38.3 39% NA NA 30.04 M
6:55 am CST S 6.9 10.00 Fair -- 53.0 36.5 53% 51 NA 30.03 M
4:15 am CST S 6.9 10.00 Fair -- 55.0 34.7 46% 53 NA 30.03 M
3:15 am CST S 5.8 10.00 Fair -- 56.0 33.6 43% 55 NA 30.04 M
2:35 am CST S 6.9 10.00 Fair -- 56.0 33.1 43% 54 NA 30.05 M
1:15 am CST S 3.5 10.00 Fair -- 56.0 32.0 40% NA NA 30.07 M
11:55 pm CST N 0.0 10.00 Fair -- 57.0 30.4 37% NA NA 30.08 M
10:35 pm CST N 0.0 10.00 Fair -- 51.0 35.6 55% NA NA 30.08 M
9:35 pm CST N 0.0 10.00 Fair -- 52.0 37.6 58% NA NA 30.09 M
7:55 pm CST N 0.0 10.00 Fair -- 57.0 35.4 45% NA NA 30.08 M
5:35 pm CST N 0.0 10.00 Fair -- 73.0 22.1 15% NA NA 30.07 M
4:35 pm CST SW 5.8 10.00 Fair -- 74.0 21.6 14% NA NA 30.07 M
3:35 pm CST NW 5.8 10.00 Fair -- 74.0 21.2 13% NA NA 30.09 M
2:55 pm CST NW 4.6 10.00 Fair -- 74.0 22.1 14% NA NA 30.10 M
1:35 pm CST N 0.0 10.00 Fair -- 73.0 24.6 16% NA NA 30.13 M
12:35 pm CST SW 5.8 10.00 Fair -- 71.0 23.9 17% NA NA 30.16 M
11:55 am CST N 3.5 10.00 Fair -- 69.0 26.8 20% NA NA 30.17 M
10:35 am CST NW 3.5 10.00 Fair -- 65.0 32.4 29% NA NA 30.19 M

Regional Weather Observation


Gilmer, Fox Stephens Field - Gilmer Municipal Airport, TX (KJXI)

Fair
66.0 F

Mount Pleasant, Mount Pleasant Regional Airport, TX (KOSA)

Fair
67.0 F

Sulphur Springs, Sulphur Springs Municipal Airport, TX (KSLR)

Fair
68.0 F

Tyler, Tyler Pounds Field, TX (KTYR)

Fair
65.0 F

Longview - East Texas Regional Airport, TX (KGGG)

Fair
64.0 F

Rusk County Airport, TX (KRFI)

Fair
37.0 F

Advertise Here


Advertise Here